Time,TemperatureF,DewpointF,PressureIn,WindDirection,WindDirectionDegrees,WindSpeedMPH,WindSpeedGustMPH,Humidity,HourlyPrecipIn,Conditions,Clouds,dailyrainin,SoftwareType,DateUTC
2013-04-04 00:00:00,38.0,-99.9,-100.00,South,173,3.0,4.0,-999,0.00,,,0.00,,2013-04-04 05:00:00,
2013-04-04 00:42:00,38.0,-99.9,-100.00,South,173,3.0,4.0,-999,0.00,,,0.00,,2013-04-04 05:42:00,
2013-04-04 00:53:00,38.0,-99.9,-100.00,South,173,3.0,4.0,-999,0.00,,,0.00,,2013-04-04 05:53:00,
2013-04-04 02:00:00,34.0,-99.9,-100.00,SSW,205,4.0,7.0,-999,0.00,,,0.00,,2013-04-04 07:00:00,
2013-04-04 02:44:00,34.0,-99.9,-100.00,SSW,205,4.0,7.0,-999,0.00,,,0.00,,2013-04-04 07:44:00,
2013-04-04 02:53:00,34.0,-99.9,-100.00,SSW,205,4.0,7.0,-999,0.00,,,0.00,,2013-04-04 07:53:00,
2013-04-04 03:00:00,35.0,-99.9,-100.00,SSW,207,4.0,6.0,-999,0.00,,,0.00,,2013-04-04 08:00:00,
2013-04-04 03:44:00,35.0,-99.9,-100.00,SSW,207,4.0,6.0,-999,0.00,,,0.00,,2013-04-04 08:44:00,
2013-04-04 03:53:00,35.0,-99.9,-100.00,SSW,207,4.0,6.0,-999,0.00,,,0.00,,2013-04-04 08:53:00,
2013-04-04 04:00:00,33.0,-99.9,-100.00,SSW,206,5.0,7.0,-999,0.00,,,0.00,,2013-04-04 09:00:00,
2013-04-04 04:44:00,33.0,-99.9,-100.00,SSW,206,5.0,7.0,-999,0.00,,,0.00,,2013-04-04 09:44:00,
2013-04-04 04:54:00,33.0,-99.9,-100.00,SSW,206,5.0,7.0,-999,0.00,,,0.00,,2013-04-04 09:54:00,
2013-04-04 05:00:00,35.0,-99.9,-100.00,SW,220,6.0,9.0,-999,0.00,,,0.00,,2013-04-04 10:00:00,
2013-04-04 05:43:00,35.0,-99.9,-100.00,SW,220,6.0,9.0,-999,0.00,,,0.00,,2013-04-04 10:43:00,
2013-04-04 05:54:00,35.0,-99.9,-100.00,SW,220,6.0,9.0,-999,0.00,,,0.00,,2013-04-04 10:54:00,
2013-04-04 06:00:00,33.0,-99.9,-100.00,West,265,1.0,3.0,-999,0.00,,,0.00,,2013-04-04 11:00:00,
2013-04-04 06:43:00,33.0,-99.9,-100.00,West,265,1.0,3.0,-999,0.00,,,0.00,,2013-04-04 11:43:00,
2013-04-04 06:55:00,33.0,-99.9,-100.00,West,265,1.0,3.0,-999,0.00,,,0.00,,2013-04-04 11:55:00,
2013-04-04 08:43:00,32.0,-99.9,-100.00,South,176,3.0,5.0,-999,0.00,,,0.00,,2013-04-04 13:43:00,
2013-04-04 08:53:00,32.0,-99.9,-100.00,South,176,3.0,5.0,-999,0.00,,,0.00,,2013-04-04 13:53:00,
2013-04-04 09:00:00,43.0,-99.9,-100.00,SW,232,4.0,11.0,-999,0.00,,,0.00,,2013-04-04 14:00:00,
2013-04-04 09:43:00,43.0,-99.9,-100.00,SW,232,4.0,11.0,-999,0.00,,,0.00,,2013-04-04 14:43:00,
2013-04-04 09:53:00,43.0,-99.9,-100.00,SW,232,4.0,11.0,-999,0.00,,,0.00,,2013-04-04 14:53:00,
2013-04-04 10:00:00,47.0,-99.9,-100.00,West,269,6.0,11.0,-999,0.00,,,0.00,,2013-04-04 15:00:00,
2013-04-04 10:44:00,47.0,-99.9,-100.00,West,269,6.0,11.0,-999,0.00,,,0.00,,2013-04-04 15:44:00,
2013-04-04 10:54:00,47.0,-99.9,-100.00,West,269,6.0,11.0,-999,0.00,,,0.00,,2013-04-04 15:54:00,
2013-04-04 11:00:00,52.0,-99.9,-100.00,West,266,5.0,10.0,-999,0.00,,,0.00,,2013-04-04 16:00:00,
2013-04-04 11:43:00,52.0,-99.9,-100.00,West,266,5.0,10.0,-999,0.00,,,0.00,,2013-04-04 16:43:00,
2013-04-04 11:55:00,52.0,-99.9,-100.00,West,266,5.0,10.0,-999,0.00,,,0.00,,2013-04-04 16:55:00,
2013-04-04 12:00:00,52.0,-99.9,-100.00,NNW,344,4.0,9.0,-999,0.00,,,0.00,,2013-04-04 17:00:00,
2013-04-04 12:43:00,52.0,-99.9,-100.00,NNW,344,4.0,9.0,-999,0.00,,,0.00,,2013-04-04 17:43:00,
2013-04-04 12:53:00,52.0,-99.9,-100.00,NNW,344,4.0,9.0,-999,0.00,,,0.00,,2013-04-04 17:53:00,
2013-04-04 13:00:00,53.0,-99.9,-100.00,North,359,4.0,12.0,-999,0.00,,,0.00,,2013-04-04 18:00:00,
2013-04-04 13:43:00,53.0,-99.9,-100.00,North,359,4.0,12.0,-999,0.00,,,0.00,,2013-04-04 18:43:00,
2013-04-04 13:53:00,53.0,-99.9,-100.00,North,359,4.0,12.0,-999,0.00,,,0.00,,2013-04-04 18:53:00,
2013-04-04 14:00:00,56.0,-99.9,-100.00,NNE,13,5.0,7.0,-999,0.00,,,0.00,,2013-04-04 19:00:00,
2013-04-04 14:43:00,56.0,-99.9,-100.00,NNE,13,5.0,7.0,-999,0.00,,,0.00,,2013-04-04 19:43:00,
2013-04-04 14:53:00,56.0,-99.9,-100.00,NNE,13,5.0,7.0,-999,0.00,,,0.00,,2013-04-04 19:53:00,
2013-04-04 15:00:00,58.0,-99.9,-100.00,NNE,19,4.0,7.0,-999,0.00,,,0.00,,2013-04-04 20:00:00,
2013-04-04 15:42:00,58.0,-99.9,-100.00,NNE,19,4.0,7.0,-999,0.00,,,0.00,,2013-04-04 20:42:00,
2013-04-04 15:53:00,58.0,-99.9,-100.00,NNE,19,4.0,7.0,-999,0.00,,,0.00,,2013-04-04 20:53:00,
2013-04-04 16:00:00,60.0,-99.9,-100.00,North,359,5.0,7.0,-999,0.00,,,-99.99,,2013-04-04 21:00:00,
2013-04-04 16:43:00,60.0,-99.9,-100.00,North,359,5.0,7.0,-999,0.00,,,-99.99,,2013-04-04 21:43:00,
2013-04-04 16:53:00,60.0,-99.9,-100.00,North,359,5.0,7.0,-999,0.00,,,-99.99,,2013-04-04 21:53:00,
2013-04-04 17:00:00,63.0,-99.9,-100.00,NW,320,4.0,9.0,-999,0.00,,,-99.99,,2013-04-04 22:00:00,
2013-04-04 17:43:00,63.0,-99.9,-100.00,NW,320,4.0,9.0,-999,0.00,,,-99.99,,2013-04-04 22:43:00,
2013-04-04 17:53:00,63.0,-99.9,-100.00,NW,320,4.0,9.0,-999,0.00,,,-99.99,,2013-04-04 22:53:00,
2013-04-04 18:00:00,60.0,-99.9,-100.00,NW,326,4.0,9.0,-999,0.00,,,0.00,,2013-04-04 23:00:00,
2013-04-04 18:43:00,60.0,-99.9,-100.00,NW,326,4.0,9.0,-999,0.00,,,0.00,,2013-04-04 23:43:00,
2013-04-04 18:53:00,60.0,-99.9,-100.00,NW,326,4.0,9.0,-999,0.00,,,0.00,,2013-04-04 23:53:00,
2013-04-04 20:00:00,52.0,-99.9,-100.00,North,10,5.0,8.0,-999,0.00,,,0.00,,2013-04-05 01:00:00,
2013-04-04 20:43:00,52.0,-99.9,-100.00,North,10,5.0,8.0,-999,0.00,,,0.00,,2013-04-05 01:43:00,
2013-04-04 20:54:00,52.0,-99.9,-100.00,North,10,5.0,8.0,-999,0.00,,,0.00,,2013-04-05 01:54:00,
2013-04-04 21:00:00,50.0,-99.9,-100.00,NNE,17,5.0,8.0,-999,0.00,,,0.00,,2013-04-05 02:00:00,
2013-04-04 21:42:00,50.0,-99.9,-100.00,NNE,17,5.0,8.0,-999,0.00,,,0.00,,2013-04-05 02:42:00,
2013-04-04 21:53:00,50.0,-99.9,-100.00,NNE,17,5.0,8.0,-999,0.00,,,0.00,,2013-04-05 02:53:00,
2013-04-04 22:00:00,47.0,-99.9,-100.00,North,351,4.0,8.0,-999,0.00,,,0.00,,2013-04-05 03:00:00,
2013-04-04 22:43:00,47.0,-99.9,-100.00,North,351,4.0,8.0,-999,0.00,,,0.00,,2013-04-05 03:43:00,
2013-04-04 22:55:00,47.0,-99.9,-100.00,North,351,4.0,8.0,-999,0.00,,,0.00,,2013-04-05 03:55:00,
2013-04-04 23:00:00,45.0,-99.9,-100.00,NNE,22,6.0,12.0,-999,0.00,,,0.00,,2013-04-05 04:00:00,
2013-04-04 23:43:00,45.0,-99.9,-100.00,NNE,22,6.0,12.0,-999,0.00,,,0.00,,2013-04-05 04:43:00,
2013-04-04 23:53:00,45.0,-99.9,-100.00,NNE,22,6.0,12.0,-999,0.00,,,0.00,,2013-04-05 04:53:00,